Погода в Волокославинском

Россия / Вологодская область     59°55′04″N   38°47′05″E
темп.,
°C
ветер,
м/с
пор.,
м/с
влажн.,
%
обл.,
%
осадки,
мм/ч
давл.,
гПа
погр.,
м
12 апреля, пн
пн1200:00−2ююз119473 0.0 103410
03:00−2юв119518 0.0 103531
06:000юв279092 0.0 1035125
09:00+4юв3109590 0.2 1034281
12:00+9ююв378499 0.0 1033477
15:00+12ю410769 0.0 1033666
18:00+11ю38805 0.0 1032272
21:00+8ююв41390100 0.0 1031395
13 апреля, вт
вт1300:00+6ююв41392100 0.0 1030498
03:00+6ююв31094100 0.0 1028411
06:00+6ююв31097100 0.0 1027395
09:00+8ю41090100 0.0 1025490
12:00+11ю4984100 0.1 1024599
15:00+13ююз3780100 0.3 1023660
18:00+11ююз2886100 0.0 1022288
21:00+9ююз1193100 0.0 102210
14 апреля, ср
ср1400:00+8ююз1194100 0.0 102212
03:00+8ю2495100 0.0 102186
06:00+7ю2796100 0.0 1020142
09:00+11ю31077100 0.0 1019354
12:00+15ююз4862100 0.0 1018683
15:00+15ююз4764100 0.0 1018850
18:00+13зюз257898 0.1 1017145
21:00+8ссз3695100 0.9 1019321
15 апреля, чт
чт1500:00+5с4891100 1.6 1021418
03:00+4ссв499186 1.6 1021418
06:00+4ссв3891100 0.0 1022511
09:00+4св3795100 0.1 1023530
12:00+5св3687100 0.1 1023720
15:00+6всв3579100 0.3 1023867
18:00+7всв2575100 0.1 1023500
21:00+5ссв3682100 0.1 1023249
16 апреля, пт
пт1600:00+2ссв289266 0.0 1024187
03:000с28915 0.0 1025165
06:000с28880 0.0 1025200
09:00+5ссв48560 0.0 1026824
12:00+8ссв58460 0.0 10271341
15:00+8с68445 0.0 10281686
18:00+6с49515 0.0 10301519
21:00+3ссв310620 0.0 1032466